Regional Weather Roundup
Issued by NWS

Home | Current Version | Previous Version | Text Only | Print | Product List | Glossary On
Versions: 1 2 3 4 5 6 7 8 9 10 11 12 13 14 15 16 17 18 19 20 21 22 23 24 25 26 27 28 29 30 31 32 33 34 35 36 37 38 39 40 41 42 43 44 45 46 47 48 49 50
000
ASUS43 KFSD 260102
RWRSD

WEATHER ROUNDUP FOR SOUTH DAKOTA
NATIONAL WEATHER SERVICE SIOUX FALLS SD
800 PM CDT WED APR 25 2018

NOTE: "FAIR" INDICATES FEW OR NO CLOUDS BELOW 12,000 FEET WITH NO
SIGNIFICANT WEATHER AND/OR OBSTRUCTIONS TO VISIBILITY.


SDZ001>005-009-010-012>017-260200-
NORTHWEST AND NORTH CENTRAL SOUTH DAKOTA

CITY           SKY/WX    TMP DP  RH WIND       PRES   REMARKS
BUFFALO          N/A     63  27  25 NW20      29.84R
FAITH            N/A     63  33  32 SW6       29.85S
MOBRIDGE       CLOUDY    58  35  42 SE9       29.83S
$$

SDZ012>016-024>037-041>051-057-063-072>074-260200-
SOUTHWEST AND SOUTH CENTRAL SOUTH DAKOTA

CITY           SKY/WX    TMP DP  RH WIND       PRES   REMARKS
RAPID CTY ARPT CLOUDY    68  28  22 CALM      29.85F
PIERRE         CLOUDY    60  30  32 S12       29.87F
CUSTER         MOCLDY    60  15  17 SW6       29.94F
ELLSWORTH AFB  MOCLDY    69  22  17 N3        29.84F
PHILIP         MOCLDY    65  26  23 S8        29.85F
PINE RIDGE     CLOUDY    63  30  28 S7        29.91F
SPEARFISH      FAIR      63  28  27 N28G40    29.92R
WINNER         FAIR      60  28  29 S12       29.93F
$$

SDZ004>011-016>023-039-040-260200-
NORTHEAST SOUTH DAKOTA

CITY           SKY/WX    TMP DP  RH WIND       PRES   REMARKS
ABERDEEN       PTCLDY    57  34  41 S13       29.90F
WATERTOWN      CLOUDY    51  35  54 S9        29.95F
BROOKINGS      PTCLDY    53  34  48 SW7       29.99F
SISSETON         N/A     55  36  48 S13       29.90F
$$

SDZ017-020-022-023-036>040-048>070-260200-
SOUTHEAST SOUTH DAKOTA

CITY           SKY/WX    TMP DP  RH WIND       PRES   REMARKS
SIOUX FALLS    PTCLDY    56  28  34 SW3       30.00F
HURON          CLOUDY    58  35  42 S13       29.94F
CHAMBERLAIN    MOCLDY    59  33  37 S10       29.93F
MITCHELL       CLOUDY    58  33  39 S10       29.98F
YANKTON        CLEAR     57  27  31 E3        30.01F
$$

ABBREVIATIONS USED IN REMARKS
   TC - TEMPERATURE IN CELSIUS
  WCI - WIND CHILL INDEX
   HX - HEAT INDEX
  VSB - VISIBILITY




USA.gov is the U.S. government's official web portal to all federal, state and local government web resources and services.